Погода Одесское

Погода Одесское : погода сейчас, прогноз погоды и архив. Всё, что Вы хотите узнать о погоде Одесское!

Хотите узнать прогноз погоды Одесское? Тогда Вам сюда: Погода Одесское

Поиск расширенной информации на нашем сайте:

Другие новости

Новости СМИ2

Главная страница сайта

Новости сайта

03.07.2017

Напоминаем, что на нашем специализированном сайте Метеоцентр.Азия вы можете получить высокодетализированные автоматические прогнозы погоды по пунктам России, СНГ и мира в авиационном формате (включающие направление и скорость ветра, видимость, явления погоды, количество и форму облачности, нижнюю и верхнюю границу облачности).


Погода Одесское - сегодня

Время (UTC), дата Ветер
(°,м/с) 
Видим.   Явления Облачность Т
(°С)
Тd
(°С)
f(%) Тe
(°С)
Pmin
(гПа)
dP
(гПа)
Po
(мм)
O2
(г/м3)
Тmin Tmax R s Состояние
почвы
21 14.10.18 170 (Ю) 10 км  [диам. отлож. мокр. снега 4 мм]  8/0 средняя, верхняя 
[Ac und|Ci fib]
-2.7 -2.7 100 -4  1017.5  0.5  751  306           
00 15.10.18 150 (ЮВ) 10 км  [диам. отлож. мокр. снега 4 мм]  ясно 
-5.4 -5.4 100 -7  1018.2  0.4  752  310           
03 15.10.18 150 (ЮВ) 10 км  [диам. отлож. мокр. снега 4 мм]  8/0 средняя, верхняя 
[Ac cast|Ci fib]
-4.5 -4.5 100 -7  1018.9  0.8  752  309  -6.1      равномерный
сухой снег
100% 
09 15.10.18 030 (СВ) 10 км  [диам. отлож. мокр. снега 0 мм]  8/4 600 м кучево-дожд., верхняя 
[Cb calv|Ci fib]
+3.8 +1.3 84 +5  1018.1  -0.8  752  299           
12 15.10.18 060 (СВ) 10 км    10/4 600 м кучево-дожд., средняя, верхняя 
[Cb calv|Ac trans|Cc]
+3.5 -2 67 +3  1018.4  0.3  752  299           
15 15.10.18 040 (СВ) 10 км    ясно 
-1.8 -3.9 86 -3  1019  0.2  752  306    +5       
18 15.10.18 040 (СВ) 10 км    4/0 верхняя 
[Ci]
-2.8 -3.9 92 -5  1018.3  -0.7  752  307           
21 15.10.18 030 (СВ) 10 км    10/4 600 м кучево-дожд., верхняя 
[Cb calv|Ci]
-1.7 -2.7 93 -4  1017  -1.2  751  305           
00 16.10.18 020 (С) 10 км    10/4 300 м верхняя 
[St|Ci fib]
-1.3 -2.6 91 -5  1016.9  0.1  751  304           
06 16.10.18 030 (СВ) 5{11}  10 км    3/0 верхняя 
[Ci fib]
+5 -2.7 57 +3  1017.5  0.1  752  298           
12 16.10.18 020 (С) 3{11}  10 км    ясно 
+4.1 -4.4 54 +3  1019.6  1.5  753  299           
15 16.10.18 350 (С) 10 км    ясно 
-0.8 -4.8 74 -3  1021  1.1  754  305    +7       
18 16.10.18 310 (СЗ) 10 км    ясно 
-5 -6.9 86 -5  1021.4  0.1  754  310           
21 16.10.18 260 (З) 10 км    ясно 
-7.2 -8.1 93 -7  1021.3  -0.2  754  313           
00 17.10.18 260 (З) 0200 м  переохл. туман [диам. изморози 2 мм]  ?/?  
-5.6 -5.6 100 -8  1021.9  0.7  754  311           
03 17.10.18 230 (ЮЗ) 4000 м  дымка{туман} [диам. изморози 4 мм]  10/10 360 м 
[St]
-3.4 -3.4 100 -6  1021.4  -0.4  754  308  -7.2         
15 17.10.18 190 (Ю) 6-12{16}  4000 м  слаб. снег  10/10 420 м 
[Ns]
+0.7 +0.1 96 -3  1009.9  -3.2  746  300    +4.7  0.3     
00 18.10.18 170 (Ю) 6-10{11}  4000 м  слаб. дождь{снег}  10/10 480 м 
[Ns]
+2.2 +2.2 100 -1  998.6  -3.2  737  294           
03 18.10.18 190 (Ю) 5{10}  4000 м  слаб. дождь  10/10 400 м 
[Frnb|Ns]
+3.3 +3.3 100 +1  996.6  -1.9  736  292  +0.6       
12 18.10.18 230 (ЮЗ) 4{12}  10 км    10/8 600 м кучево-дожд., средняя, верхняя 
[Cb calv|Ac trans|Ci fib]
+2.5 -0.4 81 1000.3  1.2  739  295           
15 18.10.18 200 (Ю) 4{10}  10 км    9/9 600 м кучево-дожд. 
[Cb calv]
+0.8 +0.1 95 -2  1001.8  1.3  740  297    +4.6  0.8     
03 19.10.18 130 (ЮВ) 10 км    10/10 540 м кучево-дожд. 
[Cb calv]
-0.1 -0.1 100 -1  1005.7  1.5  743  299  -0.4    0.3     
06 19.10.18 100 (В) 10 км    10/10 750 м кучево-дожд. 
[Cb calv]
+1.3 +0.1 92 +2  1007.1  1.5  744  298           
09 19.10.18 340 (С) 10 км    10/10 600 м кучево-дожд. 
[Cb calv]
+1.8 +0.3 90 1008.5  1.4  745  298           
15 19.10.18 270 (З) 10 км  {ливн. осадки}  10/3 600 м кучево-дожд., средняя 
[Cb calv|Ac und]
+0.5 +0.3 99 +1  1012.4  1.8  748  301    +2  0.0     
Время (UTC), дата Ветер
(°,м/с) 
Видим.   Явления Облачность Т
(°С)
Тd
(°С)
f(%) Тe
(°С)
Pmin
(гПа)
dP
(гПа)
Po
(мм)
O2
(г/м3)
Тmin Tmax R s Состояние
почвы

Для получения пояснительной информации подведите курсор к названию столбца.

ПОГОДА Одесское - архив

Всё, что Вы хотите узнать о погоде Одесское - удобно и подробно!

Выберите нужную дату (начиная с 1 января 2015* года) и нажмите кнопку "Найти".
Будут отображены архивные сводки погоды по пункту Одесское, начиная с указанной даты.


Отображать данные в формате CSV (для использования в таблицах Excel)


Внимание! Наш архив погоды предназначен исключительно для личного некоммерческого использования в познавательных целях. Если Вам необходимы официальные справки о состоянии погоды (для производственных, юридических, коммерческих и т.п. целей), обращайтесь в органы Росгидромета.

*Примечание: данная дата относится к архиву по метеостанциям СССР (Россия, СНГ, Балтия).
Архив по метеостанциям Зарубежной Европы и Азии (кроме Китая) хранится 10 дней, по другим регионам земного шара (Китай, Африка, Америка, Австралия, Океания) - 1 день.

Одесское - район местоположения метеостанции


Название, широта, долгота, высота метеостанции:
Одесское 54.2°ш. 73°д. 125 м над ур. моря [Российская Федерация]

Дополнительная информация

В oтличие oт бoльшинства пoгoдных сайтoв мы публикуем пoдрoбную метеoинфoрмацию в детальнoм прoфессиoнальнoм фoрмате.

Характеристики температуры и влажнoсти вoздуха измеряются на высoте 2 м в тени вдали oт зданий и деревьев.
Скoрoсть ветра измеряется на высoте 10 м (на урoвне рoста челoвека скoрoсть ветра ниже в 1.5-2 раза). Если метеoстанция нахoдится в гoрoде или в лесу, тo скoрoсть ветра занижена на 2-4 м/с пo сравнению с oткрытым местoм. Скoрoсть ветра над акватoриями крупных рек и oзёр, а также на вершинах хoлмoв на 2-5 м/с выше, чем в oбычных услoвиях.
Атмoсфернoе давление в разных тoчках местнoсти мoжет значительнo oтличаться oт давления на метеoстанции, в зависимoсти oт услoвий рельефа (при пoдъёме на 10 м давление пoнижается примернo на 1 мм рт.ст.).